SL-16 R/B

Satellite information

Favourite Embed

Satellite Type and Status

ROCKET BODYIN ORBIT

Key statistics

Satellite SL-16 R/B at a glance.

Uptime

9779

Days in orbit

Revolutions

≈ 14.2

Per day

Orbit

LEO

Low Earth Orbit

Inclination

71.0

Latest

Satellite identification and parameters

Extended collection of information and parameters for SL-16 R/B.

Object identification

Identified? True

Debris? False

Object name: SL-16 R/B

International designator: 1998-045B

Object number (NORAD): 25407

Object ID (CCSDS): 25407

Country: COMMONWEALTH OF INDEPENDENT STATES (CIS)

Current information (Y/N): Y

RCS size: LARGE

Orbital parameters

Period: 101.685 minutes

Inclination: 71.0093 deg

SMA: 7216.58 km

Apoapsis: 842.774 km

Periapsis: 834.115 km

RAAN: 109.2877 deg

Eccentricy: 0.0005999

Argument of periapsis: 151.0541 deg

Mean anomaly: 209.0916 deg

Mean motion: 14.16138261 rev/day

Mean motion (dot): -0.00000067 rev/day2

B* drag term: -0.0000098759 1/REarth

Two-line elements (TLE)

Creation date: May 6, 2025, 3:54 a.m.

Reference frame: TEME

Reference center: EARTH

Epoch: May 5, 2025, 4:15 p.m. UTC

TLE line 0: 0 SL-16 R/B

TLE line 1: 1 25407U 98045B 25125.67723897 -.00000067 00000-0 -98759-5 0 9996

TLE line 2: 2 25407 71.0093 109.2877 0005999 151.0541 209.0916 14.16138261383490

Live tracking on map

Real-time ground track for satellite SL-16 R/B.

In-orbit conjunctions

A list of the most updated potential collisions computed for object SL-16 R/B.

Target Orbit TCA Probability of collision Miss distance Type
CZ-6A DEB LEO 2025-05-06 01:48:44 0.001206164 70.0 (m) DEBRIS
FENGYUN 1C DEB SSO 2025-03-27 19:29:09 0.0004874052 156.0 (m) DEBRIS
NOAA 16 DEB SSO 2024-12-01 18:18:36 0.0001601185 429.0 (m) DEBRIS
FENGYUN 1C DEB SSO 2024-11-15 00:26:46 0.0003682641 90.0 (m) DEBRIS
FENGYUN 1C DEB SSO 2024-11-11 23:48:24 0.0001967633 409.0 (m) DEBRIS

Associated space launch

Second generation ELING satellite

SL-16 R/B was lifted into orbit during the mission ‘Zenit-2 | Tselina-2 20’, on board a Zenit-2 space rocket.

The launch took place on July 28, 1998, 9:15 a.m. from 45/1.

For more information about the launch, click the button.

Launch to space Zenit-2 | Tselina-2 20
Zenit-2 | Tselina-2 20

Agency: N/A

Status: Launch Successful

Launch date: July 28, 1998, 9:15 a.m. UTC

Rocket: Zenit-2

Launch pad: 45/1

Location: Baikonur Cosmodrome, Republic of Kazakhstan

...

Latest news about this satellite

There are no fresh news available about this satellite. Check back as we update our databases every day.


Newsletter sign-up

Weekly statistics, charts and insights to help you stay on top of the space industry.